Stations météo

réclame
Mon MeteoGroup
Nancy/Ochey, France (7181): Température de l'air & dewpoint: 11.01.2018 07:00:00 - 17.01.2018 07:00:00 (CET)Nancy/Ochey, France (7181): Température de l'air 5cm: 11.01.2018 07:00:00 - 17.01.2018 07:00:00 (CET)Nancy/Ochey, France (7181): Température de l'air -20cm & Température de l'air -100cm: 11.01.2018 07:00:00 - 17.01.2018 07:00:00 (CET)Nancy/Ochey, France (7181): Vitesse du vent & gusts: 11.01.2018 07:00:00 - 17.01.2018 07:00:00 (CET)Nancy/Ochey, France (7181): Direction du vent: 11.01.2018 07:00:00 - 17.01.2018 07:00:00 (CET)Nancy/Ochey, France (7181): reduced air pressure: 11.01.2018 07:00:00 - 17.01.2018 07:00:00 (CET)Nancy/Ochey, France (7181): visibility: 11.01.2018 07:00:00 - 17.01.2018 07:00:00 (CET)Nancy/Ochey, France (7181): Quantités de précipitations: 11.01.2018 07:00:00 - 17.01.2018 07:00:00 (CET)
Date & Time tt [°C] td [°C] tt 5cm [°C] tt -20cm [°C] tt -100cm [°C] ff [km/h] ff [knt] fx [km/h] fx [knt] dd ppp [hPa] vv [km] rr [mm]
17.01.2018 07:00:00 2,4 -0,4 1,0 5,6 7,2 24 13 57 31 W 1004,8 10 0,2
17.01.2018 06:00:00 2,5 -0,3 1,4 5,7 7,2 34 18 61 33 W 1003,8 10 0,0
17.01.2018 05:00:00 2,5 1,0 1,2 5,7 7,2 29 16 53 28 W 1002,6 10 0,6
17.01.2018 04:00:00 3,2 0,6 2,6 5,7 7,2 34 18 91 49 W 1001,9 10 0,0
17.01.2018 03:00:00 3,8 1,8 2,1 5,7 7,3 31 17 51 28 WSW 1000,9 10 0,2
17.01.2018 02:00:00 3,9 1,4 2,6 5,7 7,3 26 14 54 29 WSW 1000,2 10 0,0
17.01.2018 01:00:00 4,6 2,6 2,9 5,7 7,3 31 17 55 30 WSW 1000,6 10 0,0
17.01.2018 00:00:00 3,5 2,8 3,0 5,7 7,3 18 10 39 21 W 1000,7 5 2,2
16.01.2018 23:00:00 3,8 2,9 3,1 5,7 7,4 8 4 37 20 W 1001,1 10 0,8
16.01.2018 22:00:00 4,0 2,7 3,0 5,6 7,3 22 12 48 26 WSW 1001,9 10 0,0
16.01.2018 21:00:00 4,3 2,5 2,8 5,6 7,4 24 13 44 24 WSW 1001,8 10 0,2
16.01.2018 20:00:00 4,7 2,7 3,6 5,6 7,4 22 12 56 30 WSW 1002,6 10 0,0
16.01.2018 19:00:00 4,8 3,3 3,7 5,6 7,4 21 11 54 29 WSW 1002,3 10 0,2
16.01.2018 18:00:00 5,8 3,5 4,7 5,6 7,4 28 15 49 26 WSW 1002,1 10 0,0
16.01.2018 17:00:00 6,1 3,9 4,9 5,5 7,4 24 13 47 26 WSW 1001,6 20 0,6
16.01.2018 16:00:00 7,0 4,0 5,0 5,5 7,5 20 11 39 21 WSW 1001,8 55 0,0
16.01.2018 15:00:00 5,4 4,0 3,0 5,5 7,5 24 13 59 32 W 1002,3 10 1,4
16.01.2018 14:00:00 5,0 3,2 4,6 5,5 7,5 27 15 84 45 WNW 1002,7 20 0,4
16.01.2018 13:00:00 5,7 4,3 4,4 5,4 7,6 21 11 49 26 W 1002,6 10 0,4
16.01.2018 12:00:00 6,2 4,0 5,2 5,4 7,6 29 16 68 37 W 1002,8 10 0,4
16.01.2018 11:00:00 6,4 5,5 5,6 5,4 7,6 28 15 49 26 WSW 1001,9 10 1,6
16.01.2018 10:00:00 6,5 5,3 5,7 5,3 7,6 31 17 61 33 WSW 1001,8 8 1,8
16.01.2018 09:00:00 7,1 5,4 5,8 5,3 7,6 37 20 72 39 WSW 1001,2 13 0,2
16.01.2018 08:00:00 6,9 5,4 5,6 5,3 7,6 35 19 50 27 WSW 1000,3 10 0,6
16.01.2018 07:00:00 6,9 5,5 6,0 5,2 7,6 31 17 58 31 WSW 1000,5 8 0,4
16.01.2018 06:00:00 7,6 5,7 6,1 5,2 7,6 42 23 69 37 WSW 1000,3 10 0,4
16.01.2018 05:00:00 6,9 6,0 6,2 5,2 7,6 35 19 50 27 SW 1000,4 16 0,2
16.01.2018 04:00:00 7,1 6,0 6,2 5,2 7,6 29 15 44 24 SW 1001,3 17 0,4
16.01.2018 03:00:00 7,5 6,0 6,3 5,2 7,7 26 14 49 27 SW 1002,1 10 0,2
16.01.2018 02:00:00 7,1 6,0 6,2 5,1 7,7 26 14 44 24 SW 1002,3 10 0,2
16.01.2018 01:00:00 7,0 5,9 5,8 5,1 7,7 26 14 50 27 SW 1003,2 10 0,8
16.01.2018 00:00:00 6,8 5,6 5,5 5,1 7,7 37 20 61 33 SW 1003,3 9 1,0
15.01.2018 23:00:00 6,0 5,4 5,0 5,1 7,7 35 19 55 30 SW 1003,1 8 1,4
15.01.2018 22:00:00 5,6 4,7 4,6 5,1 7,7 41 22 68 37 SSW 1003,1 4,8 1,0
15.01.2018 21:00:00 5,3 4,3 4,3 5,1 7,7 39 21 72 39 SSW 1003,6 9 1,1
15.01.2018 20:00:00 5,1 3,9 4,0 5,0 7,7 45 24 77 41 SSW 1004,0 7 1,4
15.01.2018 19:00:00 4,8 3,5 3,9 5,0 7,7 45 25 69 37 SSW 1004,6 7 1,8
15.01.2018 18:00:00 4,7 3,4 3,9 5,0 7,7 39 21 68 37 SSW 1005,9 8 2,2
15.01.2018 17:00:00 5,6 3,3 4,2 5,0 7,7 41 22 60 33 SSW 1007,4 9 0,4
15.01.2018 16:00:00 6,2 2,8 5,7 5,0 7,7 35 19 57 31 SSW 1008,5 10 0,0
15.01.2018 15:00:00 6,1 3,1 5,2 5,0 7,7 34 18 50 27 S 1009,5 10 0,0
15.01.2018 14:00:00 6,3 2,6 6,1 5,0 7,8 29 16 44 24 S 1012,3 10 0,0
15.01.2018 13:00:00 6,4 2,7 6,4 5,0 7,7 26 14 39 21 SSW 1014,1 10 0,0
15.01.2018 12:00:00 5,7 2,2 5,9 5,0 7,8 24 13 34 18 S 1015,5 10 0,0
15.01.2018 11:00:00 5,0 1,8 4,7 5,0 7,8 26 14 38 21 S 1016,5 10 0,0
15.01.2018 10:00:00 4,6 2,0 3,8 5,0 7,7 24 13 34 18 S 1017,2 10 0,0
15.01.2018 09:00:00 3,9 1,8 3,0 5,1 7,8 16 9 31 17 SSW 1018,2 10 0,0
15.01.2018 08:00:00 3,6 1,0 2,5 5,1 7,8 21 11 30 16 S 1018,4 10 0,0
15.01.2018 07:00:00 3,0 0,6 2,4 5,1 7,8 15 8 26 14 S 1018,7 10 0,0
15.01.2018 06:00:00 2,9 0,3 2,3 5,1 7,8 14 7 20 11 SSE 1018,8 14 0,0
15.01.2018 05:00:00 2,9 0,3 1,2 5,2 7,8 13 7 20 11 SSW 1019,5 10 0,0
15.01.2018 04:00:00 3,1 0,0 1,9 5,2 7,8 16 9 24 13 S 1019,7 16 0,0
15.01.2018 03:00:00 3,6 0,3 0,4 5,2 7,8 15 8 19 11 SSW 1020,0 10 0,0
15.01.2018 02:00:00 1,8 -0,1 -0,3 5,2 7,8 9 5 13 7 SSE 1020,6 10 0,0
15.01.2018 01:00:00 1,2 -0,3 -0,7 5,3 7,8 9 5 13 7 SSE 1021,3 10 0,0
15.01.2018 00:00:00 0,2 -0,8 -3,9 5,3 7,8 8 4 11 6 SE 1021,8 7 0,0
14.01.2018 23:00:00 0,5 -0,4 -3,8 5,3 7,8 5 3 10 5 SE 1021,6 7 0,0
14.01.2018 22:00:00 0,2 -0,8 -3,6 5,3 7,8 8 4 10 5 SE 1021,7 6 0,0
14.01.2018 21:00:00 0,7 -0,6 -2,7 5,4 7,8 0 0 16 8 N 1021,4 8 0,0
14.01.2018 20:00:00 1,3 -0,3 -2,0 5,4 7,8 9 5 13 7 SE 1021,2 10 0,0
14.01.2018 19:00:00 1,4 -0,4 -1,3 5,4 7,8 8 4 16 9 E 1021,0 9 0,0
14.01.2018 18:00:00 1,7 -0,1 -0,9 5,4 7,8 10 5 16 9 ESE 1020,8 10 0,0
14.01.2018 17:00:00 2,4 0,1 0,1 5,4 7,8 8 4 15 8 ESE 1020,4 10 0,0
14.01.2018 16:00:00 3,3 0,5 2,6 5,4 7,8 8 5 16 9 E 1020,0 11 0,0
14.01.2018 15:00:00 4,0 0,7 4,1 5,4 7,8 8 4 13 7 E 1019,6 10 0,0
14.01.2018 14:00:00 5,1 0,1 8,0 5,5 7,8 8 4 11 6 NE 1019,5 10 0,0
14.01.2018 13:00:00 5,2 0,9 5,4 5,5 7,8 8 4 15 8 E 1019,6 10 0,0
14.01.2018 12:00:00 2,7 -0,4 3,5 5,6 7,8 4 2 16 9 - 1020,5 9 0,0
14.01.2018 11:00:00 1,8 -0,6 1,0 5,6 7,8 10 6 16 9 E 1020,7 10 0,0
14.01.2018 10:00:00 0,6 -1,2 -1,4 5,7 7,9 9 5 15 8 E 1020,5 8 0,0
14.01.2018 09:00:00 -0,6 -1,7 -3,1 5,7 7,8 7 4 20 11 E 1020,1 7 0,0
14.01.2018 08:00:00 -0,7 -1,7 -2,1 5,7 7,8 13 7 23 12 E 1019,8 6 0,0
14.01.2018 07:00:00 -0,8 -1,8 -2,8 5,8 7,8 11 6 23 12 E 1019,8 6 0,0
14.01.2018 06:00:00 -0,7 -1,8 -2,7 5,8 7,8 15 8 21 12 E 1019,4 6 0,0
14.01.2018 05:00:00 -0,6 -1,7 -2,6 5,8 7,9 4 2 20 11 - 1019,6 7 0,0
14.01.2018 04:00:00 -0,1 -1,2 -1,3 5,9 7,8 16 9 22 12 ESE 1019,6 6 0,0
14.01.2018 03:00:00 0,2 -1,1 -1,5 5,9 7,8 16 9 21 11 ESE 1019,5 6 0,0
14.01.2018 02:00:00 -0,1 -1,4 -1,8 5,9 7,9 11 6 19 10 ESE 1019,5 8 0,0
14.01.2018 01:00:00 -0,1 -1,1 -2,2 5,9 7,9 10 5 18 10 E 1020,0 7 0,0
14.01.2018 00:00:00 0,1 -0,9 -2,0 6,0 7,9 8 4 17 9 ESE 1020,3 7 0,0
13.01.2018 23:00:00 0,7 -0,5 -0,8 6,0 7,8 13 7 26 14 E 1020,1 7 0,0
13.01.2018 22:00:00 1,1 -0,4 -0,3 6,0 7,8 15 8 24 13 E 1019,9 8 0,0
13.01.2018 21:00:00 1,5 -0,4 0,1 6,0 7,8 11 6 28 15 E 1020,0 10 0,0
13.01.2018 20:00:00 1,6 -0,3 0,3 6,0 7,8 15 8 30 16 E 1020,1 10 0,0
13.01.2018 19:00:00 2,2 -0,4 0,9 6,1 7,8 15 8 35 19 E 1020,0 10 0,0
13.01.2018 18:00:00 2,7 -0,1 1,1 6,1 7,9 11 6 17 9 E 1020,2 10 0,0
13.01.2018 17:00:00 3,4 0,3 1,9 6,1 7,9 10 5 23 13 ENE 1020,4 16 0,0
13.01.2018 16:00:00 4,5 0,4 4,6 6,1 7,9 16 8 29 16 ENE 1020,6 18 0,0
13.01.2018 15:00:00 4,6 0,0 5,4 6,1 7,8 18 10 30 16 E 1021,0 10 0,0
13.01.2018 14:00:00 4,9 0,1 5,1 6,1 7,8 18 10 34 18 ENE 1021,4 10 0,0
13.01.2018 13:00:00 4,8 0,6 6,6 6,2 7,8 18 10 29 15 ENE 1022,3 13 0,0
13.01.2018 12:00:00 4,4 0,7 4,9 6,2 7,8 13 7 23 12 ENE 1023,3 10 0,0
13.01.2018 11:00:00 2,8 0,5 1,6 6,2 7,8 8 4 14 8 ENE 1024,1 8 0,0
13.01.2018 10:00:00 1,2 0,0 -0,3 6,3 7,8 6 3 9 5 ENE 1024,1 3,8 0,0
13.01.2018 09:00:00 0,2 -0,4 -1,2 6,3 7,8 6 4 16 9 E 1024,1 3,1 0,0
13.01.2018 08:00:00 0,3 -0,3 -0,9 6,4 7,8 11 6 18 10 E 1024,2 3,1 0,0
13.01.2018 07:00:00 0,9 0,0 -0,9 6,4 7,8 5 3 14 8 ENE 1024,5 4,2 0,0
13.01.2018 06:00:00 2,4 1,1 1,8 6,4 7,8 5 3 14 7 - 1024,5 9 0,0
13.01.2018 05:00:00 2,5 0,9 1,9 6,4 7,8 8 4 18 10 E 1024,9 10 0,0
13.01.2018 04:00:00 2,4 1,1 1,9 6,4 7,8 13 7 25 14 E 1025,4 10 0,0
13.01.2018 03:00:00 2,4 1,4 1,8 6,5 7,8 15 8 26 14 E 1025,7 6 0,0
13.01.2018 02:00:00 2,1 1,7 1,7 6,5 7,8 10 5 19 10 ENE 1026,1 4,1 0,0
13.01.2018 01:00:00 2,1 1,8 1,0 6,5 7,8 6 3 16 8 ENE 1026,3 2,6 0,0
13.01.2018 00:00:00 1,8 1,4 -0,4 6,6 7,8 11 6 15 8 E 1026,4 3,6 0,0
12.01.2018 23:00:00 2,1 1,5 -0,4 6,6 7,8 8 4 11 6 E 1026,5 4,3 0,0
12.01.2018 22:00:00 2,8 2,2 -2,7 6,6 7,8 5 3 10 6 NE 1026,2 6 0,0
12.01.2018 21:00:00 2,9 2,2 -3,7 6,6 7,8 4 2 11 6 - 1025,9 7 0,0
12.01.2018 20:00:00 3,3 2,3 -2,7 6,6 7,8 8 4 10 6 ENE 1025,4 9 0,0
12.01.2018 19:00:00 4,0 2,7 -3,2 6,6 7,8 9 5 11 6 NE 1025,4 10 0,0
12.01.2018 18:00:00 4,2 2,5 -2,6 6,6 7,8 5 3 8 4 - 1025,4 10 0,0
12.01.2018 17:00:00 5,6 2,9 -0,3 6,5 7,8 2 1 7 4 NNE 1025,3 10 0,0
12.01.2018 16:00:00 7,2 3,8 7,4 6,5 7,8 5 3 15 8 NE 1024,7 28 0,0
12.01.2018 15:00:00 6,6 4,9 7,6 6,5 7,8 5 3 11 6 N 1024,8 13 0,0
12.01.2018 14:00:00 6,6 5,2 8,0 6,5 7,8 6 3 16 8 NNE 1024,8 17 0,0
12.01.2018 13:00:00 5,9 5,9 6,6 6,5 7,8 5 3 11 6 NE 1025,1 6 0,0
12.01.2018 12:00:00 5,2 5,2 5,7 6,6 7,8 4 2 10 5 - 1025,6 3,7 0,0
12.01.2018 11:00:00 4,7 4,7 5,2 6,6 7,8 6 4 10 5 N 1025,8 0,3 0,0
12.01.2018 10:00:00 4,5 4,5 4,5 6,6 7,8 4 2 9 5 NNE 1025,3 0,3 0,0
12.01.2018 09:00:00 4,3 4,3 4,2 6,6 7,8 5 3 10 5 N 1024,9 0,4 0,0
12.01.2018 08:00:00 4,3 4,3 4,1 6,6 7,8 4 2 6 4 NW 1024,5 1,0 0,0
12.01.2018 07:00:00 4,1 4,1 4,0 6,6 7,8 4 2 9 5 N 1024,1 0,5 0,0
12.01.2018 06:00:00 4,1 4,1 3,9 6,6 7,8 4 2 11 6 N 1023,7 0,1 0,0
12.01.2018 05:00:00 4,0 4,0 3,9 6,6 7,8 9 5 12 7 NNE 1023,6 0,5 0,0
12.01.2018 04:00:00 4,0 4,0 3,8 6,6 7,8 4 2 9 5 - 1023,6 0,3 0,0
12.01.2018 03:00:00 3,8 3,8 3,3 6,6 7,8 5 3 10 5 NNW 1023,4 0,5 0,0
12.01.2018 02:00:00 3,7 3,7 0,8 6,6 7,8 3 2 6 3 WNW 1022,6 0,1 0,0
12.01.2018 01:00:00 3,8 3,7 1,5 6,6 7,8 0 0 7 4 N 1022,3 0,9 0,0
12.01.2018 00:00:00 3,5 3,4 1,8 6,6 7,8 3 2 5 3 NE 1022,2 0,1 0,0
11.01.2018 23:00:00 4,8 4,7 2,7 6,6 7,8 4 2 9 5 NNW 1021,5 0,6 0,0
11.01.2018 22:00:00 4,8 4,7 0,3 6,6 7,8 5 3 8 4 N 1021,1 5 0,0
11.01.2018 21:00:00 4,3 4,0 0,7 6,6 7,8 5 3 10 5 NW 1020,8 5 0,0
11.01.2018 20:00:00 5,1 4,4 1,0 6,6 7,8 4 2 8 4 NNE 1020,0 10 0,0
11.01.2018 19:00:00 5,6 4,9 3,5 6,6 7,8 0 0 5 3 N 1019,4 10 0,0
11.01.2018 18:00:00 6,1 4,9 3,9 6,6 7,8 3 2 8 4 N 1018,8 30 0,0
11.01.2018 17:00:00 6,8 5,3 6,1 6,6 7,8 6 3 9 5 NNE 1018,2 28 0,0
11.01.2018 16:00:00 7,2 5,3 7,7 6,5 7,8 5 3 11 6 NNE 1017,4 10 0,0
11.01.2018 15:00:00 7,2 5,7 7,4 6,5 7,8 5 3 7 4 NW 1016,7 40 0,0
11.01.2018 14:00:00 7,5 5,5 8,6 6,6 7,8 4 2 8 4 - 1016,1 10 0,0
11.01.2018 13:00:00 7,1 5,7 8,2 6,6 7,8 5 3 12 6 W 1016,0 20 0,0
11.01.2018 12:00:00 6,8 5,7 6,7 6,6 7,8 4 2 9 5 - 1016,0 10 0,0
11.01.2018 11:00:00 5,8 5,2 5,6 6,6 7,8 5 3 9 5 - 1015,9 10 0,0
11.01.2018 10:00:00 5,2 4,9 4,2 6,6 7,8 3 2 9 5 SSE 1015,1 6 0,0
11.01.2018 09:00:00 4,8 4,5 1,5 6,6 7,8 6 4 11 6 SSE 1014,5 9 0,0
11.01.2018 08:00:00 4,6 4,3 3,3 6,6 7,8 9 5 12 6 SSE 1013,9 7 0,0
11.01.2018 07:00:00 4,4 4,3 2,9 6,6 7,8 8 4 12 6 SSE 1013,3 6 0,0

tt = Température de l'air
td = dewpoint
tt 5cm = Température de l'air 5cm
tt -20cm = Température de l'air -20cm
tt -100cm = Température de l'air -100cm
ff = Vitesse du vent
fx = gusts
dd = Direction du vent
ppp = reduced air pressure
vv = visibility
rr = Quantités de précipitations

stations d'obs. à proximité